Location: Unspecified
(0.0000°N, 0.0000°E)
Time: 15:50:21
(UTC+00:00)

FENGYUN 1C DEB - Pass Details

Date: 15 February 2026
Orbit: 819 x 963 km, 99.2° (Epoch: 3 October)

Event Time Altitude Azimuth Distance (km) Brightness Sun altitude
Rises 05:24:45 0° 194° (SSW) 3,541 ? -12.0°
Reaches altitude 10° 05:27:50 10° 210° (SSW) 2,575 ? -11.3°
Maximum altitude 05:31:51 20° 255° (WSW) 1,930 ? -10.3°
Drops below altitude 10° 05:35:48 10° 301° (WNW) 2,507 ? -9.3°
Enters shadow 05:35:59 - 302° (WNW) 2,555 ? -9.3°
